CLASSIFICA

I BRIGANTI del POLLINO

DIVISIONI:
13K     22K     CLASSIFICA:   ASSOLUTA   
CATEGORIE:   TUTTE    |   SF   |   SF35   |   SF40   |   SF45   |   SF50   |   SF55   |   SF60   |   SF65   |   SM   |   SM35   |   SM40   |   SM45   |   SM50   |   SM55   |   SM60   |   SM65   |   SM75  
FILTRO:
  Atleta      Team        Pulisci       Atleti classificati 13K: 176  

Cliccare sulle colonne per cambiare ordinamento Pagina:   | 1 | | 2 | | 3 | | 4 |
Pos. M/F Cat. P.Cat. Pett Naz Atleta Squadra Tempo Distacco MEDIA
11SM140BIANCO GIANPIERORUNNING TEAM DANGELA SPORT00.53.09 4,05 Min/Km
22SM40172SCARCIA GIANLUCAATLETICA CAPO DI LEUCA00.53.15+00:06 4,06 Min/Km
33SM262MARINO UMBERTOASD CORRICASTROVILLARI00.54.05+00:56 4,10 Min/Km
44SM40273SERGI COSIMOATLETICA CAPO DI LEUCA00.55.13+02:04 4,15 Min/Km
55SM403171CRISCI POLICARPOA.S.GAGLIANICO 197400.55.16+02:07 4,15 Min/Km
66SM366BRIGANTE RICCARDOATLETICA CAPO DI LEUCA00.56.26+03:17 4,21 Min/Km
77SM35123SQUICCIARINI DOMENICOATLETICA ADELFIA00.56.27+03:18 4,21 Min/Km
88SM439VOLZA PIERPAOLOA.S.D. LA FENICE00.59.28+06:19 4,35 Min/Km
99SM565BERNAUDO MARIOASD DOJO JUDO RUNNING00.59.31+06:22 4,35 Min/Km
1010SM693LORITO MICHELECLUB ATLETICO LAURIA SEDAS01.00.00+06:51 4,37 Min/Km
1111SM352143NICOLETTI LEONARDOA.S.D. MARATHON MASSAFRA01.00.19+07:10 4,38 Min/Km
1212SM40498URBISAGLIA DONATOATLETICA PALAZZO01.00.34+07:25 4,40 Min/Km
1313SM45130PALAZZO ROMEOA.S.D. GRAVINA FESTINA LENTE!01.01.13+08:04 4,43 Min/Km
1414SM452174DELLI NOCI FABRIZIORUNCARD01.01.23+08:14 4,43 Min/Km
1515SM353166L'ASSAINATO GAETANOA.S.D. OLIMPIA GROTTAGLIE01.01.30+08:21 4,44 Min/Km
1616SM453185PICA NICOLARUNCARD01.01.39+08:30 4,45 Min/Km
1717SM50194DE LUCA FRANCESCOPODISTICA AMATORI POTENZA01.01.40+08:31 4,45 Min/Km
1818SM354102DI NOIA DORIANATLETICA CORREREPOLLINO01.02.11+09:02 4,47 Min/Km
1919SM45467DE MASI BIAGIOATLETICA CAPO DI LEUCA01.02.43+09:34 4,50 Min/Km
2020SM455176FRANCOLINO PIETRORUNCARD01.02.54+09:45 4,50 Min/Km
2121SM60155OLIVA GIUSEPPEATLETICA CEGLIE MESSAPICA01.03.42+10:33 4,54 Min/Km
221SF40180SCATIGNA STEFANIASALENTO IS RUNNING01.03.43+10:34 4,54 Min/Km
2322SM40550ARGENTIERO STEFANOATLETICA CEGLIE MESSAPICA01.03.48+10:39 4,54 Min/Km
2423SM456118VIOLA EGIDIOATLETICA AMATORI LAURIA01.04.25+11:16 4,57 Min/Km
2524SM355181MANGHISI NICOLARUNCARD01.05.36+12:27 5,03 Min/Km
2625SM457111VIOLA ANTONIOATLETICA CORREREPOLLINO01.06.09+13:00 5,05 Min/Km
2726SM458142MONTEMURRO COSIMOA.S.D. MARATHON MASSAFRA01.06.18+13:09 5,06 Min/Km
2827SM551121SCOLAMIERO FRANCESCOBRAMEA VULTUR RUNNERS01.06.21+13:12 5,06 Min/Km
2928SM35611IGNAZZI GIANLUCAA.S.D. MONTEDORO NOCI01.06.22+13:13 5,06 Min/Km
3029SM552109VICECONTE DOMENICO DONATOATLETICA CORREREPOLLINO01.06.34+13:25 5,07 Min/Km
3130SM50291LOSPINOSO FEDERICOASD POLISPORTIVA RE-CYCLING01.07.00+13:51 5,09 Min/Km
3231SM602116ROSSI FELICEATLETICA AMATORI LAURIA01.07.10+14:01 5,10 Min/Km
3332SM40634DE CATALDO GIACINTOA.S.D. LA FENICE01.07.15+14:06 5,10 Min/Km
3433SM459123GRECO SILVIO SALVATOREIDEATLETICA AURORA01.07.46+14:37 5,13 Min/Km
3534SM451024DE FEUDIS NICOLAA.S.D. BISCEGLIE RUNNING01.07.52+14:43 5,13 Min/Km
3635SM503184PETRELLI MICHELERUNCARD01.07.59+14:50 5,14 Min/Km
3736SM451110PAOLILLO ANTONIOATLETICA TOMMASO ASSI TRANI01.08.06+14:57 5,14 Min/Km
3837SM50454LERNA ANTONIOATLETICA CEGLIE MESSAPICA01.08.18+15:09 5,15 Min/Km
3938SM55343GOFFREDO VITTORIOASDNOCINCORSA01.08.38+15:29 5,17 Min/Km
4039SM50595DE LUCA GIUSEPPEPODISTICA AMATORI POTENZA01.09.06+15:57 5,19 Min/Km
4140SM65145CONVERTINI DONATOATLETICA CASALINI01.09.14+16:05 5,20 Min/Km
4241SM3572DELFINE DOMENICOA.S. AMATORI PUTIGNANO01.09.27+16:18 5,21 Min/Km
4342SM35815LIPPOLIS MAURIZIOAVIS IN CORSA CONVERSANO01.09.30+16:21 5,21 Min/Km
442SF451168FERRANTE NICOLETTAATLETICA TALSANO01.09.34+16:25 5,21 Min/Km
4543SM40749SALERNO LUIGIA.S. TEAM FRANCAVILLA01.09.36+16:27 5,21 Min/Km
4644SM506169MINZERA CLAUDIOATLETICA TALSANO01.10.04+16:55 5,23 Min/Km
4745SM60363PERTICARO PASQUALINOASD CORRICASTROVILLARI01.10.12+17:03 5,24 Min/Km
4846SM604107PONZO NICOLAATLETICA CORREREPOLLINO01.10.27+17:18 5,25 Min/Km
4947SM4512117SISINNI DOMENICOATLETICA AMATORI LAURIA01.10.33+17:24 5,26 Min/Km
5048SM451329SICOLI GIANNIA.S.D. NADIR ON THE ROAD - PUT01.10.33+17:24 5,26 Min/Km
5149SM507112VITALE PROSPEROATLETICA CORREREPOLLINO01.10.33+17:24 5,26 Min/Km
5250SM50871MARTELLA BIAGIOATLETICA CAPO DI LEUCA01.10.38+17:29 5,26 Min/Km
5351SM509160MOLENDINI ALFREDOTARANTO SPORTIVA01.11.15+18:06 5,29 Min/Km
5452SM60557SCATIGNA COSIMOATLETICA CEGLIE MESSAPICA01.11.29+18:20 5,30 Min/Km
5553SM7108SARUBBI STEFANOATLETICA CORREREPOLLINO01.11.29+18:20 5,30 Min/Km
5654SM4081PINTO LORENZOA.S. ATLETICA CASTELLANA01.11.52+18:43 5,32 Min/Km
5755SM451486IANNUZZIELLO LUIGILUCANI FREE RUNNERS01.11.56+18:47 5,32 Min/Km
5856SM55487STIGLIANO FRANCESCO PASQUALUCANI FREE RUNNERS01.11.56+18:47 5,32 Min/Km
5957SM451537PALMIERI GIUSEPPEA.S.D. LA FENICE01.12.03+18:54 5,33 Min/Km
6058SM5010120FRASCELLA DONATOBRAMEA VULTUR RUNNERS01.12.06+18:57 5,33 Min/Km
6159SM55552ELIA LORENZOATLETICA CEGLIE MESSAPICA01.12.18+19:09 5,34 Min/Km
6260SM4516115LONGO ANGELOATLETICA AMATORI LAURIA01.12.50+19:41 5,36 Min/Km
6361SM55627LOLIVA DOMENICOA.S.D. NADIR ON THE ROAD - PUT01.12.50+19:41 5,36 Min/Km
6462SM3599FERRAZZANO BENITOATLETICA TOMMASO ASSI TRANI01.12.50+19:41 5,36 Min/Km
6563SM8148SARDARO MARIOA.S.D. MARATHON MASSAFRA01.13.09+20:00 5,38 Min/Km
6664SM40918BELLUCCI MATTIAATLETICA ADELFIA01.13.39+20:30 5,40 Min/Km
673SF40221GIGANTE LUIGIA ANNAATLETICA ADELFIA01.13.39+20:30 5,40 Min/Km
6865SM501164RUSSO GENNARINOASD CORRICASTROVILLARI01.14.09+21:00 5,42 Min/Km
6966SM5012152BARBATO ANTONIOTARANTO SPORTIVA01.14.16+21:07 5,43 Min/Km
7067SM5013113CARLOMAGNO PIETROATLETICA AMATORI LAURIA01.14.19+21:10 5,43 Min/Km
7168SM60647PUNZI GIOVANNIATLETICA CASALINI01.14.30+21:21 5,44 Min/Km
7269SM60779CARRACCHIA GIAMPIEROSALENTO IS RUNNING01.14.31+21:22 5,44 Min/Km
7370SM60882BELLO CARLOGPDM LECCE01.14.53+21:44 5,46 Min/Km
7471SM501432RAMUNNI VITO DOMENICOALBEROBELLO RUNNING ASD01.14.58+21:49 5,46 Min/Km
7572SM609122SANTARSIERO NICOLATRANSEO01.15.15+22:06 5,47 Min/Km
7673SM501590GRANITO GIUSEPPENOVA SIRI MARATHON01.15.42+22:33 5,49 Min/Km
7774SM4010145PIZZARELLI VINCENZOA.S.D. MARATHON MASSAFRA01.15.46+22:37 5,50 Min/Km
7875SM4517141MIRAGLIA DOMENICOA.S.D. MARATHON MASSAFRA01.15.48+22:39 5,50 Min/Km
7976SM4518173D'ORIA VITTORIO ANTONIORUNCARD01.15.48+22:39 5,50 Min/Km
804SF35148BRUNO MARIA POMPEAA.S. TEAM FRANCAVILLA01.15.49+22:40 5,50 Min/Km
8177SM5016149SICILIANO CATALDOA.S.D. MARATHON MASSAFRA01.15.49+22:40 5,50 Min/Km
825SF403133CHIARADIA TUNDRAA.S.D. MARATHON MASSAFRA01.15.50+22:41 5,50 Min/Km
8378SM5017140MELLONE FERNANDOA.S.D. MARATHON MASSAFRA01.15.50+22:41 5,50 Min/Km
8479SM4519157LO PERFIDO MASSIMILIANOTARANTO SPORTIVA01.16.01+22:52 5,51 Min/Km
8580SM4520134COVELLA GIUSEPPEA.S.D. MARATHON MASSAFRA01.16.02+22:53 5,51 Min/Km
8681SM55744PASSARO PIETROASDNOCINCORSA01.16.08+22:59 5,51 Min/Km
8782SM601042FASANO VINCENZOASDNOCINCORSA01.16.08+22:59 5,51 Min/Km
8883SM5018159MASOTOLA MASSIMOTARANTO SPORTIVA01.16.16+23:07 5,52 Min/Km
8984SM4521105FILPO GIANLUCAATLETICA CORREREPOLLINO01.16.25+23:16 5,53 Min/Km
9085SM4522101DI FRANCO EDUARDOATLETICA CORREREPOLLINO01.16.25+23:16 5,53 Min/Km
9186SM3510103DONADIO IVANATLETICA CORREREPOLLINO01.16.29+23:20 5,53 Min/Km
9287SM351199BOTTA MICHELE MASSIMOATLETICA CORREREPOLLINO01.16.57+23:48 5,55 Min/Km
9388SM4011126MAGNO ANDREAA.S PODISTICA TARAS01.17.14+24:05 5,57 Min/Km
9489SM558128GRANILE VITTORIOCLUB RUNNER 87 CASTELLANETA01.17.29+24:20 5,58 Min/Km
9590SM452388VINCI MASSIMOLUCANI FREE RUNNERS01.17.33+24:24 5,58 Min/Km
9691SM559129SEMERARO FRANCESCOCLUB RUNNER 87 CASTELLANETA01.18.07+24:58 6,01 Min/Km
9792SM401253LEO ANGELOATLETICA CEGLIE MESSAPICA01.18.17+25:08 6,01 Min/Km
9893SM401325TRITTO VINCENZOA.S.D. BISCEGLIE RUNNING01.18.34+25:25 6,03 Min/Km
996SF136DIANA CHIARAA.S.D. LA FENICE01.18.35+25:26 6,03 Min/Km
1007SF404167CHIFFI GIULIANAATLETICA TALSANO01.18.38+25:29 6,03 Min/Km
10194SM452460CEFARELLI ANTIMOASD PODISTICA CASERTA01.18.49+25:40 6,04 Min/Km
10295SM5019153BATTISTA COSIMOTARANTO SPORTIVA01.18.50+25:41 6,04 Min/Km
10396SM5510175DEROBERTIS LUIGIRUNCARD01.18.55+25:46 6,04 Min/Km
10497SM652114IELPO ANTONIOATLETICA AMATORI LAURIA01.19.14+26:05 6,06 Min/Km
1058SF501158MARINO' MARIATARANTO SPORTIVA01.19.29+26:20 6,07 Min/Km
10698SM5511154BOZZARDI SALVINOTARANTO SPORTIVA01.19.30+26:21 6,07 Min/Km
10799SM5020139MAGGI SALVATOREA.S.D. MARATHON MASSAFRA01.19.35+26:26 6,07 Min/Km
1089SF50278PETRELLI ANNAMARIAA.S.D. TRE CASALI01.19.46+26:37 6,08 Min/Km
109100SM401456ROMA LUIGIATLETICA CEGLIE MESSAPICA01.19.50+26:41 6,09 Min/Km
110101SM4015164RIZZO ROBERTOTARANTO SPORTIVA01.19.52+26:43 6,09 Min/Km
111102SM502189BATTAFARANO GIUSEPPENOVA SIRI MARATHON01.20.00+26:51 6,09 Min/Km
11210SF259PIGNATELLI DANIELAOSTUNI RUNNERS01.20.24+27:15 6,11 Min/Km
113103SM502212LOLIVA NICOLAA.S.D. MONTEDORO NOCI01.20.40+27:31 6,12 Min/Km
11411SF452125LOMBARDI ROSAA.S PODISTICA TARAS01.21.16+28:07 6,15 Min/Km
115104SM601185SILLAVI GIUSEPPEGPDM LECCE01.21.16+28:07 6,15 Min/Km
11612SF3156DE VIRGILIS SABRINATARANTO SPORTIVA01.21.18+28:09 6,15 Min/Km
117105SM65346CONVERTINI LUCAATLETICA CASALINI01.21.33+28:24 6,16 Min/Km
118106SM452561D'ELIA MASSIMO GAETANOASD CORRICASTROVILLARI01.22.05+28:56 6,19 Min/Km
119107SM6012106GUERRIERO SALVATOREATLETICA CORREREPOLLINO01.22.29+29:20 6,21 Min/Km
120108SM5512144PALMISANO CARMELOA.S.D. MARATHON MASSAFRA01.22.37+29:28 6,21 Min/Km
121109SM6013178GRAVINO ANTONIORUNCARD01.22.39+29:30 6,22 Min/Km
122110SM5023124LOMBARDI FRANCESCOA.S PODISTICA TARAS01.22.52+29:43 6,22 Min/Km
12313SF60183CAMASSA ALESSANDRAGPDM LECCE01.23.15+30:06 6,24 Min/Km
12414SF50392PETROCELLI ANNA MARIAASD POLISPORTIVA RE-CYCLING01.23.16+30:07 6,24 Min/Km
125111SM5513119CAPPA PASQUALEBRAMEA VULTUR RUNNERS01.23.21+30:12 6,25 Min/Km
126112SM654146SALINARI DAMIANO COSIMOA.S.D. MARATHON MASSAFRA01.24.03+30:54 6,28 Min/Km
127113SM401635DI CUNTO PEPPINOA.S.D. LA FENICE01.24.15+31:06 6,29 Min/Km
128114SM3512179LONGO FRANCESCORUNCARD01.24.48+31:39 6,31 Min/Km
12915SF453151ARGESE PATRIZIATARANTO SPORTIVA01.24.55+31:46 6,32 Min/Km
130115SM4017163PIGNATELLI GIOVANNITARANTO SPORTIVA01.24.55+31:46 6,32 Min/Km
131116SM60147DIBELLO NICOLO'ATLETICA MONOPOLI01.25.22+32:13 6,34 Min/Km
132117SM502496TAURISANO EUGENIOPODISTICA AMATORI POTENZA01.25.25+32:16 6,34 Min/Km
13316SF40513LOSACCO PATRIZIAA.MARATONETI ANDRIESI01.25.26+32:17 6,34 Min/Km
134118SM452626MASTRAPASQUA PASQUALEBARLETTA SPORTIVA01.25.28+32:19 6,34 Min/Km
135119SM6555PICCIRILLI STEFANOA.S. AMATORI PUTIGNANO01.26.19+33:10 6,38 Min/Km
136120SM6564LATTARULO CARMINEA.S. AMATORI PUTIGNANO01.26.20+33:11 6,39 Min/Km
13717SF40674TRINCHERA STEFANIAPODISTICA COPERTINO01.26.35+33:26 6,40 Min/Km
138121SM6015130LODESERTO SANTECRISPIANO MARATHON CLUB ONLUS01.26.36+33:27 6,40 Min/Km
139122SM401831PAVONE TOMMASOALBEROBELLO RUNNING ASD01.26.55+33:46 6,41 Min/Km
140123SM7516BERARDINO NICOLAA.A.E. MANZARI CASAMASSIMA01.27.42+34:33 6,45 Min/Km
141124SM401958VENERITO DOMENICOATLETICA CEGLIE MESSAPICA01.27.47+34:38 6,45 Min/Km
14218SF45433SABATELLI ANGELAALBEROBELLO RUNNING ASD01.27.58+34:49 6,46 Min/Km
14319SF45568FERSINI GABRIELLAATLETICA CAPO DI LEUCA01.28.01+34:52 6,46 Min/Km
144125SM601669GALATI ANTONIOATLETICA CAPO DI LEUCA01.29.01+35:52 6,51 Min/Km
14520SF651150TADDEO PASQUA ROSAA.S.D. MARATHON MASSAFRA01.29.13+36:04 6,52 Min/Km
146126SM5514131LUCASELLI FRANCESCOCRISPIANO MARATHON CLUB ONLUS01.29.22+36:13 6,52 Min/Km
147127SM5025165SIMEONE FRANCESCOTARANTO SPORTIVA01.29.40+36:31 6,54 Min/Km
148128SM6573GIGANTE DONATOA.S. AMATORI PUTIGNANO01.29.50+36:41 6,55 Min/Km
149129SM551581RINI AUGUSTOSALENTO IN CORSA VEGLIE01.32.26+39:17 7,07 Min/Km
150130SM3513170PACIFICO NICOLAATLETICA TALSANO01.32.57+39:48 7,09 Min/Km
151131SM65814DANIELE MARINOAVIS IN CORSA CONVERSANO01.33.03+39:54 7,10 Min/Km
152132SM452719BRUNO VITTORIANOATLETICA ADELFIA01.33.56+40:47 7,14 Min/Km
153133SM452817ANGIULI GIUSEPPE MASSIMOATLETICA ADELFIA01.33.56+40:47 7,14 Min/Km
154134SM452922NICASSIO SANTEATLETICA ADELFIA01.33.56+40:47 7,14 Min/Km
155135SM453020CURLO GIOVANNIATLETICA ADELFIA01.33.56+40:47 7,14 Min/Km
156136SM75228NETTI GIUSEPPEA.S.D. NADIR ON THE ROAD - PUT01.34.21+41:12 7,16 Min/Km
157137SM659186SCALISI FRANCESCORUNCARD01.37.03+43:54 7,28 Min/Km
158138SM4531127MARCHIANO' ANTONIOA.S PODISTICA TARAS01.37.22+44:13 7,29 Min/Km
159139SM502697PIETRAPERTOSA GIUSEPPEATLETICA PALAZZO01.39.14+46:05 7,38 Min/Km
160140SM5516161MURCIANO COSIMOTARANTO SPORTIVA01.39.14+46:05 7,38 Min/Km
16121SF456177GIRARDI ISABELLARUNCARD01.40.05+46:56 7,42 Min/Km
16222SF457187URBANO ANNARUNCARD01.41.43+48:34 7,49 Min/Km
163141SM601751CHIRICO VELIO ANDREAATLETICA CEGLIE MESSAPICA01.41.43+48:34 7,50 Min/Km
16423SF50475GUIDO PAOLAA.S.D. TRE CASALI01.42.12+49:03 7,52 Min/Km
165142SM651084NICOLACI DONATOGPDM LECCE01.42.13+49:04 7,52 Min/Km
16624SF55138TANZELLA AGNESEA.S.D. LA FENICE01.44.38+51:29 8,03 Min/Km
167143SM651116LOVECCHIO LUIGIAVIS IN CORSA CONVERSANO01.45.05+51:56 8,05 Min/Km
16825SF352155DE ROSA CONCETTATARANTO SPORTIVA01.46.33+53:24 8,12 Min/Km
169144SM4020172D'IPPOLITO ALESSANDRORUNCARD01.48.14+55:05 8,20 Min/Km
17026SF458135DONVITO ANTONIAA.S.D. MARATHON MASSAFRA01.48.34+55:25 8,21 Min/Km
17127SF4147SANSEVERINO MONICAA.S.D. MARATHON MASSAFRA01.49.39+56:30 8,26 Min/Km
17228SF60277MIGLIETTA SILVANAA.S.D. TRE CASALI01.50.13+57:04 8,29 Min/Km
17329SF65276IDONE ANNAA.S.D. TRE CASALI01.53.07+59:58 8,42 Min/Km
174145SM4532132BASTA GAETANORUNNERS GINOSA01.56.30+01:03:21 8,58 Min/Km
17530SF653136GALIULO MARGHERITA ANNAMA.S.D. MARATHON MASSAFRA01.57.30+01:04:21 9,02 Min/Km
17631SF5110VIOLA ANTONELLAATLETICA CORREREPOLLINO01.57.57+01:04:48 9,04 Min/Km
Righe per pagina::     TUTTE    |   30   |   50   |   100   Pagina:   | 1 | | 2 | | 3 | | 4 |